Time,TemperatureF,DewpointF,PressureIn,WindDirection,WindDirectionDegrees,WindSpeedMPH,WindSpeedGustMPH,Humidity,HourlyPrecipIn,Conditions,Clouds,dailyrainin,SoftwareType,DateUTC
2013-03-28 00:02:00,4.0,-12.0,29.45,WNW,290,0.0,1.0,46,0.00,,,0.00,,2013-03-28 08:02:00,
2013-03-28 00:11:00,4.0,-12.0,29.45,WNW,290,0.0,1.0,46,0.00,,,0.00,,2013-03-28 08:11:00,
2013-03-28 00:21:00,4.0,-11.0,29.46,WNW,290,0.0,1.0,48,0.00,,,0.00,,2013-03-28 08:21:00,
2013-03-28 00:32:00,3.0,-12.0,29.45,WNW,290,0.0,0.0,49,0.00,,,0.00,,2013-03-28 08:32:00,
2013-03-28 00:52:00,3.0,-11.0,29.45,WNW,290,0.0,0.0,51,0.00,,,0.00,,2013-03-28 08:52:00,
2013-03-28 01:01:00,2.0,-12.0,29.45,WNW,290,0.0,0.0,51,0.00,,,0.00,,2013-03-28 09:01:00,
2013-03-28 01:21:00,2.0,-12.0,29.45,WNW,290,0.0,0.0,52,0.00,,,0.00,,2013-03-28 09:21:00,
2013-03-28 01:32:00,1.0,-12.0,29.44,WNW,290,0.0,0.0,54,0.00,,,0.00,,2013-03-28 09:32:00,
2013-03-28 01:42:00,1.0,-11.0,29.44,WNW,290,0.0,0.0,55,0.00,,,0.00,,2013-03-28 09:42:00,
2013-03-28 02:02:00,0.0,-12.0,29.44,WNW,290,0.0,0.0,56,0.00,,,0.00,,2013-03-28 10:02:00,
2013-03-28 02:12:00,0.0,-12.0,29.44,WNW,290,0.0,0.0,56,0.00,,,0.00,,2013-03-28 10:12:00,
2013-03-28 02:22:00,0.0,-12.0,29.44,WNW,290,0.0,0.0,55,0.00,,,0.00,,2013-03-28 10:22:00,
2013-03-28 02:32:00,-1.0,-13.0,29.44,SSE,150,0.0,0.0,56,0.00,,,0.00,,2013-03-28 10:32:00,
2013-03-28 02:52:00,-1.0,-13.0,29.44,SSE,150,0.0,0.0,57,0.00,,,0.00,,2013-03-28 10:52:00,
2013-03-28 03:02:00,-2.0,-13.0,29.43,SSE,150,0.0,0.0,58,0.00,,,0.00,,2013-03-28 11:02:00,
2013-03-28 03:11:00,-2.0,-13.0,29.43,SSE,150,0.0,0.0,58,0.00,,,0.00,,2013-03-28 11:11:00,
2013-03-28 03:22:00,-2.0,-13.0,29.43,SSE,150,0.0,0.0,59,0.00,,,0.00,,2013-03-28 11:22:00,
2013-03-28 03:32:00,-2.0,-13.0,29.43,SSE,150,0.0,0.0,59,0.00,,,0.00,,2013-03-28 11:32:00,
2013-03-28 03:52:00,-2.0,-12.0,29.43,SSE,150,0.0,0.0,60,0.00,,,0.00,,2013-03-28 11:52:00,
2013-03-28 04:02:00,-2.0,-12.0,29.42,SSE,150,0.0,0.0,60,0.00,,,0.00,,2013-03-28 12:02:00,
2013-03-28 04:22:00,-2.0,-12.0,29.43,SSE,150,0.0,0.0,62,0.00,,,0.00,,2013-03-28 12:22:00,
2013-03-28 04:32:00,-1.0,-11.0,29.42,SSE,150,0.0,0.0,61,0.00,,,0.00,,2013-03-28 12:32:00,
2013-03-28 04:51:00,-1.0,-11.0,29.42,SSE,150,0.0,0.0,61,0.00,,,0.00,,2013-03-28 12:51:00,
2013-03-28 05:02:00,-1.0,-11.0,29.42,SSE,150,0.0,0.0,61,0.00,,,0.00,,2013-03-28 13:02:00,
2013-03-28 05:21:00,-1.0,-11.0,29.41,SSE,150,0.0,0.0,60,0.00,,,0.00,,2013-03-28 13:21:00,
2013-03-28 05:32:00,-1.0,-11.0,29.41,SSE,150,0.0,0.0,61,0.00,,,0.00,,2013-03-28 13:32:00,
2013-03-28 05:52:00,-1.0,-11.0,29.41,SSE,150,0.0,0.0,62,0.00,,,0.00,,2013-03-28 13:52:00,
2013-03-28 06:02:00,-1.0,-11.0,29.41,SSE,150,0.0,0.0,61,0.00,,,0.00,,2013-03-28 14:02:00,
2013-03-28 06:21:00,-1.0,-12.0,29.41,SSE,150,0.0,0.0,59,0.00,,,0.00,,2013-03-28 14:21:00,
2013-03-28 06:32:00,-1.0,-11.0,29.41,SSE,150,0.0,0.0,61,0.00,,,0.00,,2013-03-28 14:32:00,
2013-03-28 07:01:00,-1.0,-11.0,29.40,SSE,150,0.0,0.0,60,0.00,,,0.00,,2013-03-28 15:01:00,
2013-03-28 07:21:00,-2.0,-12.0,29.40,SSE,150,0.0,0.0,60,0.00,,,0.00,,2013-03-28 15:21:00,
2013-03-28 07:32:00,-2.0,-12.0,29.40,SSE,150,0.0,0.0,60,0.00,,,0.00,,2013-03-28 15:32:00,
2013-03-28 08:02:00,-2.0,-12.0,29.39,SSE,150,0.0,0.0,60,0.00,,,0.00,,2013-03-28 16:02:00,
2013-03-28 08:32:00,-2.0,-13.0,29.39,SSE,150,0.0,0.0,59,0.00,,,0.00,,2013-03-28 16:32:00,
2013-03-28 08:51:00,-1.0,-12.0,29.39,SSE,150,0.0,0.0,59,0.00,,,0.00,,2013-03-28 16:51:00,
2013-03-28 09:02:00,-1.0,-12.0,29.39,SSE,150,0.0,0.0,59,0.00,,,0.00,,2013-03-28 17:02:00,
2013-03-28 09:21:00,-1.0,-12.0,29.38,SSE,150,0.0,0.0,59,0.00,,,0.00,,2013-03-28 17:21:00,
2013-03-28 09:32:00,0.0,-11.0,29.38,SSE,150,0.0,0.0,58,0.00,,,0.00,,2013-03-28 17:32:00,
2013-03-28 09:52:00,0.0,-11.0,29.38,SSE,150,0.0,0.0,58,0.00,,,0.00,,2013-03-28 17:52:00,
2013-03-28 10:02:00,0.0,-11.0,29.37,SSE,150,0.0,0.0,59,0.00,,,0.00,,2013-03-28 18:02:00,
2013-03-28 10:21:00,1.0,-10.0,29.37,SSE,150,0.0,0.0,59,0.00,,,0.00,,2013-03-28 18:21:00,
2013-03-28 10:32:00,1.0,-10.0,29.37,SSE,150,0.0,0.0,59,0.00,,,0.00,,2013-03-28 18:32:00,
2013-03-28 10:41:00,1.0,-10.0,29.37,SSE,150,0.0,0.0,59,0.00,,,0.00,,2013-03-28 18:41:00,
2013-03-28 10:52:00,2.0,-9.0,29.37,SSE,150,0.0,0.0,59,0.00,,,0.00,,2013-03-28 18:52:00,
2013-03-28 11:01:00,3.0,-8.0,29.37,SSE,150,0.0,0.0,58,0.00,,,0.00,,2013-03-28 19:01:00,
2013-03-28 11:11:00,3.0,-8.0,29.37,SSE,150,0.0,0.0,58,0.00,,,0.00,,2013-03-28 19:11:00,
2013-03-28 11:22:00,4.0,-8.0,29.37,SSE,150,0.0,0.0,57,0.00,,,0.00,,2013-03-28 19:22:00,
2013-03-28 11:32:00,5.0,-7.0,29.37,SSE,150,0.0,0.0,56,0.00,,,0.00,,2013-03-28 19:32:00,
2013-03-28 11:41:00,5.0,-7.0,29.37,SSE,150,0.0,0.0,56,0.00,,,0.00,,2013-03-28 19:41:00,
2013-03-28 11:52:00,7.0,-6.0,29.37,SSE,150,0.0,0.0,55,0.00,,,0.00,,2013-03-28 19:52:00,
2013-03-28 12:02:00,9.0,-4.0,29.37,SSE,150,0.0,0.0,54,0.00,,,0.00,,2013-03-28 20:02:00,
2013-03-28 12:11:00,10.0,-4.0,29.37,SSE,150,0.0,0.0,53,0.00,,,0.00,,2013-03-28 20:11:00,
2013-03-28 12:21:00,10.0,-4.0,29.37,SSE,150,0.0,0.0,53,0.00,,,0.00,,2013-03-28 20:21:00,
2013-03-28 12:32:00,12.0,-3.0,29.36,SSW,194,0.0,0.0,51,0.00,,,0.00,,2013-03-28 20:32:00,
2013-03-28 12:42:00,12.0,-3.0,29.36,SSW,194,0.0,0.0,51,0.00,,,0.00,,2013-03-28 20:42:00,
2013-03-28 12:52:00,12.0,-3.0,29.36,SSW,194,0.0,0.0,51,0.00,,,0.00,,2013-03-28 20:52:00,
2013-03-28 13:02:00,17.0,-1.0,29.35,WNW,295,0.0,0.0,45,0.00,,,0.00,,2013-03-28 21:02:00,
2013-03-28 13:11:00,17.0,-1.0,29.35,WNW,295,0.0,0.0,45,0.00,,,0.00,,2013-03-28 21:11:00,
2013-03-28 13:22:00,19.0,-1.0,29.36,WNW,295,0.0,0.0,41,0.00,,,0.00,,2013-03-28 21:22:00,
2013-03-28 13:32:00,20.0,0.0,29.35,WNW,294,0.0,0.0,41,0.00,,,0.00,,2013-03-28 21:32:00,
2013-03-28 13:42:00,20.0,0.0,29.35,WNW,294,0.0,0.0,41,0.00,,,0.00,,2013-03-28 21:42:00,
2013-03-28 13:52:00,22.0,1.0,29.34,West,267,0.0,0.0,40,0.00,,,0.00,,2013-03-28 21:52:00,
2013-03-28 14:02:00,23.0,1.0,29.34,NNE,15,0.0,0.0,38,0.00,,,0.00,,2013-03-28 22:02:00,
2013-03-28 14:12:00,23.0,1.0,29.34,NNE,15,0.0,0.0,38,0.00,,,0.00,,2013-03-28 22:12:00,
2013-03-28 14:22:00,24.0,2.0,29.34,NW,312,0.0,0.0,37,0.00,,,0.00,,2013-03-28 22:22:00,
2013-03-28 14:32:00,26.0,2.0,29.33,North,0,0.0,0.0,35,0.00,,,0.00,,2013-03-28 22:32:00,
2013-03-28 14:41:00,26.0,2.0,29.33,North,0,0.0,0.0,35,0.00,,,0.00,,2013-03-28 22:41:00,
2013-03-28 14:52:00,27.0,2.0,29.33,NNE,20,0.0,0.0,33,0.00,,,0.00,,2013-03-28 22:52:00,
2013-03-28 15:02:00,27.0,2.0,29.33,ENE,64,0.0,0.0,33,0.00,,,0.00,,2013-03-28 23:02:00,
2013-03-28 15:21:00,29.0,4.0,29.32,East,101,0.0,0.0,34,0.00,,,0.00,,2013-03-28 23:21:00,
2013-03-28 15:32:00,31.0,5.0,29.32,SE,138,0.0,0.0,33,0.00,,,0.00,,2013-03-28 23:32:00,
2013-03-28 15:42:00,31.0,5.0,29.32,SE,138,0.0,0.0,33,0.00,,,0.00,,2013-03-28 23:42:00,
2013-03-28 15:52:00,33.0,6.0,29.31,East,90,0.0,0.0,32,0.00,,,0.00,,2013-03-28 23:52:00,
2013-03-28 16:02:00,34.0,7.0,29.31,East,90,0.0,0.0,32,0.00,,,0.00,,2013-03-29 00:02:00,
2013-03-28 16:11:00,34.0,7.0,29.31,East,90,0.0,0.0,32,0.00,,,0.00,,2013-03-29 00:11:00,
2013-03-28 16:21:00,34.0,8.0,29.31,North,352,0.0,0.0,33,0.00,,,0.00,,2013-03-29 00:21:00,
2013-03-28 16:32:00,33.0,7.0,29.30,SE,131,0.0,1.0,33,0.00,,,0.00,,2013-03-29 00:32:00,
2013-03-28 16:42:00,33.0,7.0,29.30,SE,131,0.0,1.0,33,0.00,,,0.00,,2013-03-29 00:42:00,
2013-03-28 16:51:00,33.0,7.0,29.30,SE,127,0.0,1.0,33,0.00,,,0.00,,2013-03-29 00:51:00,
2013-03-28 17:02:00,34.0,8.0,29.29,East,88,0.0,1.0,33,0.00,,,0.00,,2013-03-29 01:02:00,
2013-03-28 17:11:00,34.0,8.0,29.29,East,88,0.0,1.0,33,0.00,,,0.00,,2013-03-29 01:11:00,
2013-03-28 17:22:00,34.0,8.0,29.29,SSW,203,0.0,1.0,33,0.00,,,0.00,,2013-03-29 01:22:00,
2013-03-28 17:32:00,34.0,7.0,29.28,South,185,0.0,1.0,32,0.00,,,0.00,,2013-03-29 01:32:00,
2013-03-28 17:41:00,34.0,7.0,29.28,South,185,0.0,1.0,32,0.00,,,0.00,,2013-03-29 01:41:00,
2013-03-28 17:52:00,34.0,9.0,29.28,SE,134,0.0,1.0,34,0.00,,,0.00,,2013-03-29 01:52:00,
2013-03-28 18:02:00,33.0,7.0,29.28,SE,134,0.0,1.0,33,0.00,,,0.00,,2013-03-29 02:02:00,
2013-03-28 18:11:00,33.0,7.0,29.28,SE,134,0.0,1.0,33,0.00,,,0.00,,2013-03-29 02:11:00,
2013-03-28 18:21:00,33.0,7.0,29.28,East,99,0.0,1.0,33,0.01,,,0.01,,2013-03-29 02:21:00,
2013-03-28 18:32:00,33.0,8.0,29.28,East,99,0.0,1.0,34,0.01,,,0.01,,2013-03-29 02:32:00,
2013-03-28 18:41:00,33.0,8.0,29.28,East,99,0.0,1.0,34,0.01,,,0.01,,2013-03-29 02:41:00,
2013-03-28 18:52:00,32.0,7.0,29.27,East,99,0.0,1.0,35,0.01,,,0.01,,2013-03-29 02:52:00,
2013-03-28 19:02:00,32.0,7.0,29.27,East,99,0.0,1.0,34,0.01,,,0.01,,2013-03-29 03:02:00,
2013-03-28 19:11:00,32.0,7.0,29.27,East,99,0.0,1.0,34,0.01,,,0.01,,2013-03-29 03:11:00,
2013-03-28 19:21:00,32.0,7.0,29.27,East,99,0.0,1.0,34,0.00,,,0.01,,2013-03-29 03:21:00,
2013-03-28 19:32:00,32.0,7.0,29.27,East,99,0.0,1.0,34,0.00,,,0.01,,2013-03-29 03:32:00,
2013-03-28 19:42:00,32.0,7.0,29.27,East,99,0.0,1.0,34,0.00,,,0.01,,2013-03-29 03:42:00,
2013-03-28 19:52:00,32.0,7.0,29.27,East,99,0.0,1.0,34,0.00,,,0.01,,2013-03-29 03:52:00,
2013-03-28 20:33:00,30.0,7.0,29.26,East,99,0.0,1.0,37,0.00,,,0.01,,2013-03-29 04:33:00,
2013-03-28 20:43:00,30.0,7.0,29.26,East,99,0.0,1.0,37,0.00,,,0.01,,2013-03-29 04:43:00,
2013-03-28 20:52:00,30.0,7.0,29.25,East,98,0.0,1.0,37,0.00,,,0.01,,2013-03-29 04:52:00,
2013-03-28 21:02:00,29.0,6.0,29.26,East,98,0.0,1.0,37,0.00,,,0.01,,2013-03-29 05:02:00,
2013-03-28 21:12:00,29.0,6.0,29.26,East,98,0.0,1.0,37,0.00,,,0.01,,2013-03-29 05:12:00,
2013-03-28 21:22:00,29.0,7.0,29.25,East,98,0.0,1.0,38,0.00,,,0.01,,2013-03-29 05:22:00,
2013-03-28 21:32:00,28.0,7.0,29.25,East,98,0.0,1.0,40,0.00,,,0.01,,2013-03-29 05:32:00,
2013-03-28 21:42:00,28.0,7.0,29.25,East,98,0.0,1.0,40,0.00,,,0.01,,2013-03-29 05:42:00,
2013-03-28 21:52:00,28.0,7.0,29.25,East,98,0.0,1.0,41,0.00,,,0.01,,2013-03-29 05:52:00,
2013-03-28 22:02:00,27.0,6.0,29.25,East,98,0.0,1.0,41,0.00,,,0.01,,2013-03-29 06:02:00,
2013-03-28 22:11:00,27.0,6.0,29.25,East,98,0.0,1.0,41,0.00,,,0.01,,2013-03-29 06:11:00,
2013-03-28 22:22:00,27.0,7.0,29.25,East,98,0.0,1.0,42,0.00,,,0.01,,2013-03-29 06:22:00,
2013-03-28 22:32:00,27.0,7.0,29.25,East,96,0.0,1.0,42,0.00,,,0.01,,2013-03-29 06:32:00,
2013-03-28 22:52:00,27.0,7.0,29.24,East,96,0.0,1.0,42,0.00,,,0.01,,2013-03-29 06:52:00,
2013-03-28 23:02:00,26.0,7.0,29.24,East,96,0.0,1.0,43,0.00,,,0.01,,2013-03-29 07:02:00,
2013-03-28 23:11:00,26.0,7.0,29.24,East,96,0.0,1.0,43,0.00,,,0.01,,2013-03-29 07:11:00,
2013-03-28 23:21:00,26.0,7.0,29.24,East,96,0.0,1.0,44,0.00,,,0.01,,2013-03-29 07:21:00,
2013-03-28 23:32:00,26.0,7.0,29.24,East,96,0.0,1.0,43,0.00,,,0.01,,2013-03-29 07:32:00,
2013-03-28 23:41:00,26.0,7.0,29.24,East,96,0.0,1.0,43,0.00,,,0.01,,2013-03-29 07:41:00,
2013-03-28 23:52:00,26.0,7.0,29.25,East,96,0.0,1.0,43,0.00,,,0.01,,2013-03-29 07:52:00,